{"data":{"norad_id":57114,"intl_designator":"2023-090P","name":"STARLINK-6125","alt_names":[],"object_type":"PAYLOAD","status":"ACTIVE","operator":null,"country":"US","launch_date":"2023-06-23","launch_site_code":"AFETR","launch_vehicle":null,"mission":null,"orbit_class":"UNKNOWN","rcs_meters":null,"size_class":null,"mass_kg":null,"dimensions":null,"purposes":["comms"],"wikipedia_slug":null,"has_3d_model":false,"image_url":null,"decayed_at":null,"tle_current":{"epoch":"2026-05-25T04:19:26.302656Z","epoch_age_seconds":53450,"freshness":"FRESH","line1":"1 57114U 23090P   26145.18016554  .00000330  00000+0  22010-4 0  9994","line2":"2 57114  43.0013 209.3249 0002244 320.2403  39.8283 15.26742875162038","mean_motion":15.26742875,"eccentricity":0.0002244,"inclination_deg":43.0013,"raan_deg":209.3249,"arg_perigee_deg":320.2403,"mean_anomaly_deg":39.8283,"bstar":2.201e-5,"rev_number":16203,"period_min":94.318435905588,"perigee_km":484.01668181203,"apogee_km":487.09710763198,"semimajor_km":6863.693894722,"source":"CELESTRAK","updated_at":"2026-05-25T13:38:18.242046Z"}}}